Theta_e
309 310 310 310 310 310 310 311 311 311 311 311 311 311 311 312 312 310 305 305 299 292 294 296 298 293 294 293 289 292 293 295 294 289 289 291 288 292 290 293 292 292 289 289 290 289 287 304 304 304 312 318 320 321
309 309 310 310 310 310 310 310 311 311 311 311 311 311 312 312 312 312 304 305 304 296 295 300 301 302 300 298 294 294 293 293 297 293 294 290 290 292 290 287 297 290 294 294 294 293 303 305 306 309 311 312 315 319
309 309 310 310 310 310 310 310 310 311 311 311 310 311 312 312 312 311 306 302 301 295 295 295 297 304 306 305 305 292 294 296 295 298 293 293 288 293 288 290 292 295 299 295 297 300 302 305 307 310 312 312 315 319
309 309 309 309 309 309 310 310 310 310 310 310 311 311 312 312 312 311 305 303 302 295 289 295 304 300 305 305 303 303 300 299 298 299 294 291 288 297 292 294 293 297 299 296 297 301 302 304 307 308 309 315 316 319
309 309 309 309 309 309 309 309 309 309 310 310 311 311 312 312 311 311 309 304 306 298 292 294 303 304 303 302 301 301 299 297 294 293 291 290 294 293 296 295 292 298 296 294 293 301 302 303 307 310 309 309 311 313
308 308 308 308 308 309 308 309 309 309 310 310 311 311 311 311 310 309 302 305 307 304 293 290 302 301 301 300 299 299 299 297 295 292 290 293 297 293 290 289 297 300 302 303 300 304 304 306 308 309 308 309 311 313
308 308 308 308 308 308 308 308 309 309 310 310 311 311 311 309 311 304 302 304 307 306 294 290 293 300 300 299 297 297 300 298 295 292 290 291 292 293 289 286 295 299 301 302 304 304 302 305 304 308 309 310 311 317
308 307 308 308 308 308 308 308 308 309 310 311 311 310 309 308 307 305 308 306 308 301 297 290 292 296 301 296 294 297 293 294 293 290 291 290 292 290 285 292 295 296 299 299 301 301 300 303 304 305 308 311 311 315
307 307 307 307 307 307 308 308 309 310 311 310 310 310 312 306 303 304 308 306 306 299 290 288 287 288 299 297 300 296 295 287 293 288 288 290 287 285 289 290 291 298 297 296 300 301 300 300 302 306 309 309 316 320
308 307 307 307 307 308 309 309 310 310 310 311 310 310 303 305 310 307 302 296 296 295 292 286 289 287 293 296 295 295 297 291 288 291 294 287 286 292 298 299 301 308 313 303 298 298 303 305 305 305 308 316 318 318
307 307 307 307 308 309 309 310 310 310 309 313 311 307 307 310 303 302 298 292 291 289 290 290 291 289 298 291 293 295 292 290 290 293 290 288 287 294 297 298 303 304 309 311 311 311 315 312 310 311 315 317 319 319
307 307 308 308 309 309 310 310 310 314 314 310 308 308 307 306 305 300 297 297 295 294 302 295 298 294 296 299 296 298 293 294 292 302 292 285 292 297 298 298 301 303 305 306 308 312 314 312 312 316 317 318 318 314
308 308 308 308 309 310 310 310 309 310 310 313 311 306 305 303 292 288 286 291 293 301 305 304 301 304 302 300 302 302 296 295 301 291 285 290 298 300 299 300 300 303 303 304 305 307 306 306 307 308 309 314 314 313
307 308 308 308 309 310 310 310 310 311 315 310 303 292 298 296 297 296 297 299 303 303 304 305 305 304 306 302 300 294 298 300 291 285 287 294 297 298 302 303 304 303 303 302 302 304 304 304 302 304 305 306 308 311
308 308 308 311 310 310 310 309 310 321 313 305 304 294 298 301 302 302 304 303 304 306 307 306 307 304 301 299 299 295 293 287 288 287 291 297 299 300 300 301 302 303 304 305 303 301 302 303 302 301 302 304 305 305
308 309 315 309 309 310 309 316 318 318 312 306 304 301 302 301 300 301 302 302 305 306 312 308 302 299 296 296 292 288 289 286 288 292 297 299 301 301 301 301 302 303 304 304 305 305 303 302 302 302 302 302 302 303
307 317 309 309 309 310 311 320 316 309 306 303 302 305 304 303 302 302 303 302 306 304 300 301 294 293 299 293 290 293 289 289 292 298 300 300 300 301 302 301 302 302 302 303 304 306 305 305 304 304 302 303 303 302
316 317 311 309 310 316 321 318 311 307 301 306 303 304 305 305 302 302 303 303 302 302 300 295 298 293 290 288 289 295 297 300 301 301 300 301 302 303 302 302 302 303 303 303 304 305 304 303 303 302 302 304 304 304
313 312 309 308 311 315 313 313 314 303 306 309 310 309 307 306 305 305 304 304 303 303 302 298 293 291 292 294 294 296 297 298 299 300 300 302 302 301 301 301 301 301 302 302 301 302 302 303 303 303 302 301 300 301
308 308 309 310 312 317 308 311 317 308 306 308 311 310 308 306 305 304 303 302 301 299 296 294 293 295 294 295 297 296 297 299 298 296 298 299 299 300 300 299 298 299 298 300 301 299 301 300 301 301 301 300 299 297
312 317 314 318 322 318 314 313 311 311 310 308 311 311 309 311 305 302 301 303 299 297 295 297 297 298 301 300 299 298 298 298 296 296 295 295 298 298 298 298 299 298 296 296 296 297 299 300 301 300 299 299 300 300
319 311 321 322 317 314 315 316 313 314 312 311 311 312 308 305 304 302 304 300 299 300 301 300 299 300 299 299 299 299 299 299 299 297 296 296 295 295 295 296 296 296 296 296 297 297 297 298 299 300 300 300 299 298
313 316 320 318 312 307 305 318 310 311 305 308 310 305 306 306 307 308 301 303 302 305 307 305 303 303 300 301 302 300 300 298 296 295 295 295 296 296 296 296 296 295 295 296 297 297 296 294 297 298 298 298 298 297
308 315 312 311 312 304 313 309 313 311 311 307 305 301 303 305 309 304 297 301 302 307 307 306 303 301 301 301 299 298 297 298 296 296 296 295 294 295 296 296 296 296 297 297 296 296 296 296 294 296 296 296 295 295
304 305 308 294 312 307 303 303 303 305 301 304 301 302 305 308 302 299 295 299 302 303 304 307 305 303 300 300 300 298 299 297 295 294 295 295 295 295 295 296 296 296 297 296 295 295 295 296 295 295 294 294 294 294
296 309 302 307 309 305 305 299 300 300 303 302 304 310 309 303 295 293 299 302 303 303 303 303 302 301 301 300 298 297 296 298 296 294 295 295 294 293 293 292 293 294 296 296 296 294 294 294 294 293 293 293 290 293
299 305 312 317 315 312 308 309 308 304 300 300 306 304 302 294 294 299 303 305 307 307 308 307 304 301 299 298 298 299 299 298 296 295 296 296 296 296 294 292 292 294 296 296 296 295 294 294 294 293 293 295 295 294
311 311 305 310 310 312 305 305 303 300 303 307 306 299 296 296 298 305 307 309 310 308 305 304 303 302 300 299 299 300 299 299 298 298 299 298 299 296 296 296 296 290 295 296 295 296 295 295 294 294 294 294 295 296
310 313 311 308 308 309 308 306 306 310 311 307 303 303 303 308 309 310 310 311 311 307 301 300 300 300 299 299 300 301 300 297 294 292 291 292 292 293 296 296 296 296 297 296 287 291 293 293 294 294 295 295 295 295
311 315 310 307 306 306 311 312 311 314 312 311 311 309 309 310 311 313 312 310 308 302 301 300 300 301 299 298 298 298 300 299 297 294 292 291 292 295 296 295 295 296 296 295 295 296 290 294 293 294 293 294 293 293
318 314 310 311 309 314 316 316 315 313 312 310 312 308 310 311 311 309 309 308 303 300 299 297 298 300 299 298 296 295 295 297 297 296 296 296 296 295 295 295 295 295 295 295 294 294 293 293 293 292 292 292 292 292
314 312 311 307 311 316 314 312 313 311 312 310 311 311 310 308 306 307 305 303 299 299 296 301 300 298 299 299 299 298 288 298 298 297 296 296 296 296 296 296 295 295 295 294 294 294 293 292 291 291 291 291 292 292
313 313 313 311 311 309 312 310 309 308 310 310 310 310 310 307 303 304 304 305 304 302 301 300 300 300 300 299 298 297 294 298 293 288 289 288 287 290 295 295 295 295 294 293 293 293 293 293 292 293 292 292 293 293
Wind_Speed
18 20 21 22 23 23 23 23 24 24 24 25 26 25 23 21 18 10 4 11 6 4 5 9 15 10 10 8 8 3 8 4 3 6 4 3 6 2 7 11 4 9 10 11 14 17 22 9 11 11 11 10 12 12
19 21 22 23 23 24 24 24 24 24 24 25 26 24 23 21 19 13 3 7 9 3 4 5 11 18 19 18 9 4 9 4 2 5 1 2 5 5 8 9 10 13 12 9 12 10 10 10 13 14 15 16 17 17
20 22 24 24 25 25 25 25 25 24 24 25 25 24 22 20 18 11 2 4 3 1 4 9 12 10 13 17 15 8 6 8 8 8 3 4 6 5 7 9 15 17 16 14 17 19 22 17 20 17 16 20 20 19
22 23 24 25 26 25 25 24 25 24 24 25 25 24 21 18 13 4 3 4 2 3 3 6 5 6 6 9 14 17 15 5 9 4 5 4 4 7 8 12 14 12 11 14 19 21 23 22 22 23 17 13 19 22
23 24 24 25 25 25 25 25 25 25 23 24 23 23 18 13 1 3 3 4 2 3 3 6 16 2 1 6 13 13 14 13 5 3 5 5 7 7 11 15 19 17 23 18 18 19 17 19 19 16 14 18 19 21
23 24 24 23 26 23 24 24 24 23 22 22 22 21 14 1 7 3 3 2 4 0 2 3 5 1 1 2 9 11 11 10 8 3 4 5 13 8 6 10 19 20 23 22 21 24 24 22 19 20 21 23 23 22
23 24 23 24 24 24 24 24 23 22 21 20 19 11 3 11 2 2 4 2 5 2 1 4 4 4 2 3 3 6 8 2 3 2 4 4 4 5 5 15 30 22 25 26 22 19 24 25 21 20 20 24 24 24
22 24 23 23 24 24 24 22 22 21 18 16 5 12 12 12 8 2 3 6 4 0 1 3 4 3 2 2 4 3 2 3 4 3 3 4 3 4 8 18 23 27 26 24 24 22 23 24 25 27 26 22 22 22
22 23 23 24 24 24 23 23 22 18 14 5 10 10 5 2 1 3 9 7 2 2 2 2 3 3 5 3 1 4 3 2 3 3 3 3 3 5 18 29 32 29 12 22 19 21 21 22 25 25 24 21 22 16
22 23 23 23 24 23 24 22 18 13 7 11 6 5 3 3 13 9 1 1 2 2 2 2 2 4 2 2 2 2 1 2 2 2 2 2 4 12 23 28 23 14 11 16 17 18 18 21 17 20 19 21 9 8
21 23 23 24 23 23 22 18 14 8 9 4 1 3 3 9 1 2 2 3 2 2 2 3 3 4 2 3 3 2 2 2 3 3 3 4 11 22 29 33 25 25 20 6 10 12 9 8 12 13 6 6 5 4
22 23 23 23 21 20 19 16 9 4 3 5 5 3 3 3 3 5 6 4 3 4 2 4 3 3 3 2 3 0 2 1 6 7 5 6 12 25 24 29 32 27 29 28 24 11 13 9 6 6 8 9 17 15
22 23 23 21 19 17 18 12 2 9 8 3 2 2 4 5 8 6 8 5 7 7 5 9 8 2 2 4 4 3 8 6 2 5 4 8 17 21 21 17 22 26 27 27 27 25 26 25 24 20 20 18 17 13
22 23 23 20 16 18 13 6 9 6 5 4 5 8 6 6 7 3 9 9 8 9 13 8 5 4 4 3 4 6 5 5 6 6 7 10 19 22 20 17 17 19 22 24 25 26 25 23 22 24 23 18 15 14
21 22 20 9 22 21 16 6 11 3 4 5 6 7 7 5 7 7 8 7 8 8 8 6 3 5 6 5 6 6 6 6 6 5 5 12 16 16 17 18 19 18 18 18 18 19 21 22 22 21 19 18 17 16
22 20 5 19 21 22 15 7 4 4 4 5 7 5 7 7 10 11 11 11 10 9 2 3 5 6 8 5 8 8 7 5 5 5 8 12 16 15 16 17 16 17 19 18 17 17 16 16 15 15 18 17 16 18
19 3 14 18 23 21 11 2 3 6 6 5 4 6 7 7 10 10 10 11 10 9 6 4 7 5 4 5 5 3 5 3 7 10 8 11 13 14 14 14 16 17 16 18 19 18 17 13 15 15 16 12 12 13
3 7 13 18 16 6 2 4 3 4 4 3 4 6 7 8 9 10 10 11 9 7 8 6 5 11 5 6 6 7 7 5 4 7 7 10 12 12 12 15 15 15 16 17 16 16 18 16 15 12 13 13 12 14
11 14 19 16 8 4 3 4 3 3 2 1 1 3 5 7 8 8 9 9 8 8 3 4 6 7 8 7 8 7 8 7 7 5 6 8 10 12 13 13 13 14 14 14 15 11 11 15 14 11 11 11 11 12
14 11 11 8 4 1 3 3 2 2 0 3 1 1 3 5 6 7 8 9 9 8 7 6 8 7 7 7 7 7 7 8 8 6 6 6 9 11 12 12 10 12 10 11 11 13 10 10 11 11 11 12 12 11
6 5 6 3 1 2 3 0 2 4 2 2 2 2 2 1 4 7 7 6 6 8 6 5 5 6 6 6 6 7 6 8 7 7 8 8 9 9 9 10 10 9 10 9 8 9 10 9 8 9 10 10 9 9
3 6 3 0 1 2 2 2 3 3 2 2 1 2 2 2 4 4 4 5 6 5 4 3 4 3 3 6 6 7 7 8 5 4 3 5 7 8 8 8 9 8 8 9 8 9 8 8 8 8 8 7 8 10
6 3 2 1 2 3 1 2 2 0 2 1 2 1 1 1 3 2 1 1 3 3 1 0 1 1 3 2 2 5 7 8 6 6 6 7 5 6 7 7 6 7 7 8 7 8 7 8 8 8 7 7 7 7
4 3 3 2 1 1 2 1 1 1 2 1 2 1 1 3 1 1 3 2 3 1 1 3 4 4 5 7 1 5 6 7 8 6 6 7 6 5 5 5 6 6 6 5 6 6 7 7 6 7 8 7 7 7
2 3 1 4 1 2 1 2 1 2 3 1 2 1 1 1 2 1 3 3 3 5 4 1 3 3 5 2 1 4 3 7 7 7 7 7 7 6 5 5 4 6 7 7 7 7 6 7 7 7 8 8 9 8
2 1 1 2 1 3 2 3 2 3 3 2 1 1 2 2 3 1 2 2 3 3 4 5 5 5 1 1 3 5 6 5 6 6 6 6 6 7 7 7 7 6 7 7 7 8 7 7 7 7 7 5 2 7
1 3 3 1 3 2 3 2 2 3 3 2 1 2 3 3 2 3 4 3 1 3 2 2 4 4 4 4 3 3 3 4 6 6 5 5 5 5 7 7 8 8 7 7 7 7 7 7 7 7 7 5 6 7
1 3 4 4 4 2 4 3 3 3 2 1 2 4 2 2 3 2 1 4 3 3 3 3 3 4 4 4 3 2 3 1 4 2 2 2 2 5 7 5 5 3 5 6 8 7 8 7 7 7 7 7 7 6
4 3 3 6 5 4 4 4 3 2 1 3 3 2 1 2 4 1 2 3 1 2 3 3 4 4 4 4 3 2 2 4 5 6 7 5 6 6 6 6 6 5 5 5 8 5 7 8 9 9 9 6 6 5
3 4 4 4 4 3 1 2 3 2 2 2 2 2 2 2 4 3 1 1 1 3 3 4 3 1 3 3 2 2 2 2 4 6 7 7 6 5 6 6 6 6 6 6 7 3 4 6 1 4 5 6 6 6
2 4 4 4 4 1 2 1 1 2 3 3 2 4 2 2 3 3 3 3 5 4 4 4 3 4 3 5 6 7 5 5 4 4 6 5 5 6 7 6 6 7 7 7 6 6 7 5 5 6 7 7 8 7
3 5 3 5 3 3 3 3 2 3 1 2 1 1 2 3 1 4 3 4 3 4 3 2 4 6 5 5 5 5 1 3 4 5 8 7 7 8 5 4 6 6 7 7 7 6 6 6 6 7 7 8 8 8
3 4 5 4 3 3 3 3 3 2 2 1 1 1 0 3 6 4 3 2 3 4 4 6 6 6 6 6 6 5 1 8 11 9 7 5 5 8 5 4 5 6 7 7 6 6 7 8 7 8 6 7 8 9
Wind_Direction
304 305 304 303 301 301 298 299 300 299 301 302 304 308 306 302 291 274 205 179 187 219 244 231 252 242 257 239 257 285 288 181 260 260 274 263 275 297 285 279 252 195 204 215 233 243 237 276 311 240 11 325 330 329
305 303 300 299 300 299 300 302 301 302 302 305 309 309 307 303 299 295 235 180 189 194 255 305 258 253 250 246 254 241 271 296 304 262 204 298 246 250 279 275 197 247 263 234 232 235 262 310 304 316 318 315 316 309
303 302 301 300 300 299 303 304 304 305 307 309 313 309 309 306 308 303 168 128 128 263 273 246 243 253 226 236 232 224 227 233 253 278 299 309 273 296 266 254 260 266 275 264 272 258 268 274 276 298 315 298 300 305
301 300 300 301 300 303 305 307 306 307 311 312 313 311 313 311 314 285 159 166 126 124 266 276 193 236 236 236 229 218 240 247 257 247 236 243 245 256 271 273 273 273 284 262 261 254 263 272 276 278 288 312 306 309
301 301 302 303 305 307 311 311 311 313 315 313 313 314 318 317 11 137 117 189 201 163 288 310 291 74 152 245 222 225 230 232 226 220 235 240 261 282 261 263 262 258 257 251 256 256 259 256 258 285 292 294 297 298
303 304 307 312 312 313 316 314 316 318 316 317 315 320 318 19 144 210 149 111 192 183 306 293 10 250 156 204 208 216 218 219 217 207 240 258 261 283 262 262 260 257 251 249 257 262 270 273 271 276 281 284 285 283
308 311 315 317 315 318 319 320 320 317 321 320 323 328 117 137 98 356 26 65 151 161 267 281 286 125 354 150 210 220 214 174 192 209 235 251 241 225 254 258 265 263 269 271 268 263 255 256 262 269 278 281 281 271
315 318 321 320 317 321 320 318 319 319 321 330 19 97 114 104 120 95 61 128 148 157 274 301 285 274 56 266 216 159 173 156 195 237 248 250 215 228 255 263 277 277 260 252 250 248 259 265 269 268 264 266 258 264
319 322 323 320 319 321 317 318 323 321 326 326 147 146 165 49 56 66 109 113 57 29 348 320 302 314 359 266 291 164 127 175 207 232 245 278 280 254 283 290 285 283 233 235 234 236 239 239 246 250 250 253 252 255
322 324 320 320 322 317 314 320 321 326 335 153 201 223 78 54 119 134 157 21 24 33 77 263 301 276 303 298 295 356 137 42 290 208 223 245 261 293 338 345 348 342 356 202 218 234 238 244 210 233 238 249 254 268
323 322 319 319 317 316 316 322 328 335 162 215 36 64 44 144 247 217 38 8 337 315 178 246 249 289 171 298 330 63 41 334 329 31 19 337 355 350 349 350 4 21 29 38 214 230 244 166 212 215 195 259 177 35
320 315 316 317 316 317 320 330 322 258 23 47 85 98 136 241 13 349 19 345 326 332 317 291 310 223 281 235 284 147 329 248 39 2 6 12 350 343 352 353 360 10 29 27 30 38 107 130 201 108 81 78 67 54
318 318 317 316 317 324 328 333 44 108 155 172 152 50 28 21 33 32 348 326 316 338 337 328 322 257 226 225 268 348 17 33 9 26 32 357 339 344 350 355 1 13 18 19 26 46 55 49 49 53 48 45 56 57
322 318 316 316 317 334 334 353 147 169 259 39 35 18 30 14 12 307 312 306 296 288 302 331 328 344 3 14 358 355 16 3 36 23 13 338 343 335 343 354 4 16 24 25 22 27 34 39 45 47 45 37 41 57
323 319 313 326 336 338 342 0 178 233 26 45 33 35 20 318 336 338 327 311 336 319 298 317 297 15 27 39 17 9 16 29 26 13 319 330 338 340 344 356 6 15 28 35 40 31 30 29 41 44 35 30 28 31
325 309 352 345 340 334 330 300 69 17 42 56 43 7 354 356 360 8 353 352 347 327 258 344 14 19 40 42 17 17 353 8 351 323 319 325 344 354 357 6 13 17 20 34 33 47 44 36 36 48 46 37 27 29
316 342 357 342 336 316 321 26 42 46 41 47 30 39 7 9 358 0 356 358 334 8 23 52 45 14 15 45 31 35 339 282 292 309 354 2 352 354 6 17 16 20 20 20 26 32 50 47 48 37 39 27 54 49
264 341 348 337 336 302 48 22 71 61 74 45 36 24 22 14 4 8 9 10 7 9 30 54 56 37 45 19 8 3 359 351 300 338 6 6 10 12 18 19 21 17 20 22 21 29 29 31 41 49 42 33 52 55
299 304 306 312 324 314 37 67 358 96 82 77 61 35 31 29 25 22 19 20 21 23 51 60 51 33 37 24 357 358 356 357 340 353 19 28 18 20 12 18 19 18 17 22 21 26 36 39 37 36 45 45 45 40
289 273 285 300 263 297 100 87 271 94 210 75 195 358 4 23 20 34 33 34 36 29 43 64 59 43 29 26 4 358 360 339 341 345 8 27 5 4 16 8 11 8 16 16 32 18 33 36 31 40 38 44 51 42
264 17 322 252 41 25 50 99 97 9 74 295 51 262 38 289 40 35 35 39 52 52 69 56 64 65 27 24 21 353 22 354 355 360 355 355 352 1 4 2 3 16 14 16 24 31 22 27 35 45 44 40 48 63
11 316 287 288 315 124 106 42 3 88 257 16 259 303 354 14 30 41 338 42 53 50 36 36 42 3 68 33 21 11 6 340 6 337 316 330 1 359 4 10 5 13 27 17 23 35 38 34 15 37 36 62 69 49
285 236 247 276 197 82 145 214 233 258 288 28 260 270 9 33 55 245 87 43 87 72 345 288 137 255 323 33 339 42 17 345 357 6 354 337 354 16 353 10 18 14 19 30 22 26 38 4 28 9 29 25 25 31
178 336 355 23 8 109 170 189 177 228 229 285 311 319 26 8 331 280 27 43 54 11 207 205 222 244 208 204 324 40 11 348 353 7 16 340 346 9 13 13 15 27 356 22 22 25 21 30 5 26 17 19 25 25
336 4 32 315 196 259 298 315 293 261 294 331 286 185 85 244 286 26 1 46 18 12 24 87 248 285 311 346 26 67 31 356 354 343 29 350 348 348 6 2 60 45 8 359 7 20 21 17 23 23 37 23 15 36
74 129 77 6 66 310 341 301 302 305 301 267 230 88 219 251 253 336 30 32 47 35 18 9 354 336 138 19 350 27 34 5 339 355 31 357 2 352 351 350 353 34 13 345 360 7 17 18 32 18 34 87 140 355
168 165 163 234 288 276 254 241 285 274 264 261 179 225 232 253 254 159 150 172 227 85 62 5 17 4 30 95 97 84 46 28 25 12 8 2 2 0 347 346 348 7 332 337 3 10 5 8 18 19 13 31 38 15
291 205 244 173 232 240 281 276 244 236 244 154 246 229 252 265 340 95 148 124 116 118 104 80 59 64 79 94 101 122 87 86 184 279 240 165 56 36 3 351 25 312 312 8 351 354 6 8 4 10 9 5 15 17
222 196 235 255 250 224 235 241 254 213 196 211 258 291 261 72 27 40 114 91 73 170 143 132 102 107 117 112 98 50 8 353 358 11 15 15 19 31 10 2 356 2 346 345 104 38 17 354 355 346 352 354 11 2
191 189 245 254 249 252 217 251 315 42 215 290 360 162 166 75 54 20 45 324 279 94 69 55 94 161 40 353 39 93 146 7 18 12 12 14 13 7 358 360 358 353 350 345 334 56 186 266 272 302 332 345 348 357
155 203 241 248 267 297 344 315 229 251 232 235 217 286 339 129 126 51 31 351 85 123 107 106 121 56 25 27 16 355 5 109 91 62 16 352 4 11 6 353 357 356 353 350 350 1 9 348 352 342 341 348 348 334
204 230 249 256 253 125 231 232 233 246 206 222 230 228 174 214 113 96 51 76 111 113 107 199 63 72 42 35 33 58 285 55 107 60 27 10 5 2 359 6 15 4 360 354 351 349 349 351 356 350 345 346 338 332
245 239 252 273 240 220 175 227 230 254 194 215 117 105 35 7 62 90 108 56 3 104 99 79 80 76 71 47 33 79 114 73 78 74 73 44 13 350 336 34 16 351 349 346 349 343 342 337 342 351 347 349 345 341